Voltar ao catálogo

KUIPER-00584

AtivoComunicaçõesLEO
NORAD 69274·PAYLOAD·🇺🇸 United States

Lançado May 29, 2026 de Vandenberg Space Force Base

Loading…

Próximas Passagens (próximas 24 horas)

TLE

AtualizadoSource: CelesTrak SupGP

Época: Sep 14, 2026, 15:38 UTC

1 69274C 26118H   26257.65185185  .00005645  00000+0  73913-3 0  2579
2 69274  51.9016  10.1630 0000435 106.8598 204.6293 14.79918411    14

Acompanhe KUIPER-00584 em tempo real com AllMySat

Download on the App Store